Melbourne International Airport
KMLB : now visible

Airfield :











YOU CAN JOIN US ON...

 
LOGIN :

Register | Disclaimer

   EN    FR    IT 

 









Legend :    VFR   Marginal VFR   IFR   Intensive IFR   Very Intensive IFR
Visi :
Ceiling :
>= 8 km
>= 3000ft
5 to 8 km
1000 to 3000 ft
1500m to 5 km
500 to 1000 ft
800 to 1500m
200 to 500 ft
< 800m
< 200 ft
Symbols :   Thunderstorms  Fog  Heavy snow  Heavy precipitations  Wind > 20 kt






- Airport Elevation : 33 ft
- IATA code : MLB


KMLB - Melbourne International

CURRENT METAR :
  • 241653Z 09008KT 10SM SCT060 24/17 A3017 RMK AO2 SLP216 T02440172

EXPIRED METARs :
  • 241553Z 09008KT 10SM CLR 23/17 A3019 RMK AO2 SLP223 T02280167
  • 241453Z 07006KT 10SM OVC060 21/16 A3020 RMK AO2 SLP225 T02110161 51013

TAF KMLB
Valid from the 24 at 12:00 until the 25 at 12:00 UTC


241131Z 2412/2512 10004KT P6SM SCT040
TEMPO 2412/2415 BKN040
FM241600 12009KT P6SM SCT040
FM250100 15004KT P6SM SCT035
KZMA FIR / North America



MET'MAP, your aeronautical weather chart ! - Copyright ORBIFLY December 2007 - Disclaimer

ORBIFLY MET'MAP TEAM :

Programming & Development : Alexandra Zaïnal
Concept & original design : Baudouin d'Aumeries
Assistance for programming : Marc-Olivier Méhu
Technical & hardware support : Manuel Goepfert

Contact : metmap@orbifly.com




SOURCES & CREDITS :

   NOAA       Earth
Advisory